�������l�o���
Date,Time,MP-1(��Sv/h),MP-2(��Sv/h),MP-3(��Sv/h),MP-4(��Sv/h),MP-5(��Sv/h),MP-6(��Sv/h),MP-7(��Sv/h),MP-8(��Sv/h),����,����(m/s),���J
2018/08/01,00:00,0.921,1.279,0.896,1.588,1.155,0.485,0.843,0.795,�k��,1.5,��
2018/08/01,00:10,0.919,1.275,0.899,1.588,1.157,0.485,0.842,0.796,-,CALM,��
2018/08/01,00:20,0.922,1.276,0.897,1.588,1.157,0.485,0.844,0.796,�쓌,0.9,��
2018/08/01,00:30,0.919,1.275,0.896,1.587,1.156,0.485,0.843,0.796,�쓌,0.8,��
2018/08/01,00:40,0.920,1.276,0.898,1.588,1.158,0.481,0.843,0.795,��쓌,2.5,��
2018/08/01,00:50,0.921,1.274,0.897,1.588,1.159,0.483,0.843,0.795,��쓌,2.9,��
2018/08/01,01:00,0.919,1.274,0.898,1.588,1.158,0.483,0.842,0.795,��,2.5,��
2018/08/01,01:10,0.919,1.276,0.898,1.586,1.158,0.485,0.843,0.795,��,2.2,��
2018/08/01,01:20,0.919,1.274,0.898,1.589,1.156,0.483,0.844,0.795,��쐼,2.0,��
2018/08/01,01:30,0.919,1.274,0.897,1.588,1.158,0.483,0.843,0.796,��,1.9,��
2018/08/01,01:40,0.919,1.276,0.898,1.589,1.159,0.484,0.842,0.794,�쐼,1.4,��
2018/08/01,01:50,0.919,1.275,0.896,1.587,1.157,0.485,0.844,0.796,��쐼,0.9,��
2018/08/01,02:00,0.920,1.276,0.897,1.587,1.158,0.484,0.843,0.796,��,0.8,��
2018/08/01,02:10,0.917,1.274,0.895,1.588,1.159,0.483,0.844,0.795,-,CALM,��
2018/08/01,02:20,0.919,1.275,0.897,1.587,1.157,0.485,0.843,0.794,���k��,0.6,��
2018/08/01,02:30,0.920,1.276,0.898,1.590,1.158,0.484,0.846,0.795,-,CALM,��
2018/08/01,02:40,0.919,1.274,0.898,1.588,1.158,0.484,0.844,0.795,�k,1.1,��
2018/08/01,02:50,0.920,1.275,0.899,1.586,1.157,0.484,0.846,0.796,�k�k��,0.6,��
2018/08/01,03:00,0.919,1.273,0.897,1.588,1.157,0.483,0.841,0.795,�k��,2.6,��
2018/08/01,03:10,0.920,1.277,0.899,1.590,1.157,0.484,0.841,0.796,�k��,3.6,��
2018/08/01,03:20,0.917,1.274,0.899,1.590,1.158,0.484,0.841,0.794,�k�k��,3.9,��
2018/08/01,03:30,0.920,1.274,0.898,1.586,1.157,0.482,0.843,0.796,�k�k��,5.4,��
2018/08/01,03:40,0.919,1.278,0.901,1.588,1.156,0.485,0.844,0.795,�k�k��,5.4,��
2018/08/01,03:50,0.919,1.274,0.898,1.590,1.158,0.486,0.842,0.796,�k�k��,5.6,��
2018/08/01,04:00,0.922,1.273,0.898,1.589,1.157,0.484,0.843,0.796,�k,6.0,��
2018/08/01,04:10,0.919,1.275,0.899,1.590,1.158,0.485,0.845,0.795,�k,5.6,��
2018/08/01,04:20,0.917,1.273,0.898,1.589,1.157,0.485,0.842,0.796,�k,6.6,��
2018/08/01,04:30,0.921,1.274,0.898,1.587,1.156,0.483,0.842,0.794,�k,5.3,��
2018/08/01,04:40,0.919,1.272,0.895,1.587,1.155,0.482,0.843,0.796,�k,5.1,��
2018/08/01,04:50,0.920,1.272,0.897,1.588,1.156,0.484,0.843,0.796,�k,3.7,��
2018/08/01,05:00,0.920,1.272,0.897,1.589,1.156,0.482,0.843,0.794,�k�k��,3.4,��
2018/08/01,05:10,0.919,1.276,0.896,1.586,1.153,0.483,0.842,0.795,�k,2.6,��
2018/08/01,05:20,0.918,1.273,0.896,1.587,1.154,0.481,0.841,0.794,�k,2.9,��
2018/08/01,05:30,0.919,1.272,0.897,1.587,1.156,0.481,0.841,0.795,�k,4.9,��
2018/08/01,05:40,0.920,1.274,0.898,1.585,1.155,0.482,0.842,0.795,�k�k��,4.2,��
2018/08/01,05:50,0.918,1.273,0.896,1.586,1.155,0.482,0.845,0.794,�k�k��,3.5,��
2018/08/01,06:00,0.919,1.274,0.897,1.586,1.155,0.483,0.843,0.794,�k,3.1,��
2018/08/01,06:10,0.917,1.275,0.896,1.586,1.155,0.481,0.843,0.795,�k,3.2,��
2018/08/01,06:20,0.919,1.272,0.896,1.589,1.155,0.481,0.843,0.794,�k,3.2,��
2018/08/01,06:30,0.917,1.274,0.896,1.589,1.157,0.482,0.842,0.797,�k�k��,3.0,��
2018/08/01,06:40,0.919,1.275,0.896,1.586,1.155,0.481,0.844,0.796,�k,3.0,��
2018/08/01,06:50,0.919,1.276,0.897,1.587,1.155,0.482,0.843,0.795,�k�k��,2.6,��
2018/08/01,07:00,0.919,1.274,0.897,1.589,1.154,0.483,0.842,0.797,�k�k��,2.0,��
2018/08/01,07:10,0.924,1.272,0.898,1.584,1.156,0.483,0.844,0.795,�k�k��,1.7,��
2018/08/01,07:20,0.920,1.271,0.898,1.588,1.156,0.483,0.843,0.797,�k�k��,0.9,��
2018/08/01,07:30,0.917,1.272,0.897,1.587,1.153,0.481,0.844,0.794,�k�k��,1.1,��
2018/08/01,07:40,0.920,1.272,0.897,1.585,1.155,0.482,0.845,0.796,�k,1.2,��
2018/08/01,07:50,0.919,1.274,0.896,1.584,1.155,0.481,0.845,0.797,�k��,1.7,��
2018/08/01,08:00,0.919,1.268,0.894,1.586,1.155,0.481,0.841,0.796,�k��,1.9,��
2018/08/01,08:10,0.917,1.271,0.895,1.583,1.158,0.481,0.844,0.795,���k��,1.9,��
2018/08/01,08:20,0.917,1.271,0.895,1.585,1.156,0.482,0.843,0.796,���k��,1.7,��
2018/08/01,08:30,0.918,1.271,0.895,1.586,1.157,0.481,0.845,0.797,���k��,2.0,��
2018/08/01,08:40,0.915,1.271,0.894,1.588,1.155,0.481,0.843,0.798,�k��,2.3,��
2018/08/01,08:50,0.920,1.273,0.894,1.586,1.157,0.481,0.844,0.797,�k��,2.6,��
2018/08/01,09:00,0.921,1.269,0.894,1.589,1.157,0.483,0.845,0.796,�k��,2.3,��
2018/08/01,09:10,0.917,1.272,0.895,1.588,1.159,0.480,0.845,0.795,�k�k��,2.0,��
2018/08/01,09:20,0.917,1.273,0.896,1.587,1.159,0.481,0.843,0.797,�k��,2.0,��
2018/08/01,09:30,0.917,1.272,0.894,1.587,1.158,0.480,0.845,0.793,���k��,1.5,��
2018/08/01,09:40,0.918,1.271,0.893,1.589,1.157,0.481,0.846,0.794,��,1.7,��
2018/08/01,09:50,0.918,1.274,0.896,1.589,1.158,0.481,0.845,0.793,�k��,1.4,��
2018/08/01,10:00,0.920,1.274,0.896,1.590,1.159,0.481,0.842,0.793,��,1.7,��
2018/08/01,10:10,0.920,1.273,0.896,1.590,1.161,0.482,0.841,0.796,���쓌,2.5,��
2018/08/01,10:20,0.923,1.275,0.895,1.588,1.161,0.481,0.844,0.793,���쓌,2.0,��
2018/08/01,10:30,0.922,1.272,0.897,1.589,1.161,0.481,0.842,0.793,���쓌,1.5,��
2018/08/01,10:40,0.924,1.273,0.898,1.589,1.162,0.481,0.843,0.794,�쓌,1.7,��
2018/08/01,10:50,0.921,1.274,0.897,1.591,1.162,0.480,0.844,0.794,�쓌,2.6,��
2018/08/01,11:00,0.921,1.274,0.898,1.590,1.159,0.480,0.842,0.794,�쓌,2.2,��
2018/08/01,11:10,0.924,1.276,0.901,1.591,1.164,0.480,0.843,0.794,�쓌,2.0,��
2018/08/01,11:20,0.924,1.275,0.897,1.587,1.160,0.480,0.844,0.796,�쓌,2.2,��
2018/08/01,11:30,0.922,1.275,0.898,1.588,1.165,0.481,0.842,0.795,��,2.3,��
2018/08/01,11:40,0.924,1.277,0.899,1.587,1.164,0.482,0.843,0.794,��쓌,1.9,��
2018/08/01,11:50,0.920,1.280,0.897,1.588,1.167,0.483,0.844,0.796,��쓌,2.5,��
2018/08/01,12:00,0.922,1.281,0.898,1.590,1.164,0.481,0.844,0.794,��쓌,2.9,��
2018/08/01,12:10,0.924,1.284,0.899,1.589,1.165,0.483,0.846,0.795,��쓌,2.6,��
2018/08/01,12:20,0.921,1.282,0.899,1.592,1.166,0.483,0.845,0.795,��쓌,2.2,��
2018/08/01,12:30,0.922,1.284,0.900,1.590,1.166,0.482,0.844,0.795,��쓌,2.6,��
2018/08/01,12:40,0.919,1.283,0.897,1.589,1.165,0.482,0.846,0.795,��쓌,2.6,��
2018/08/01,12:50,0.923,1.282,0.900,1.592,1.168,0.481,0.845,0.794,��쓌,2.6,��
2018/08/01,13:00,0.917,1.281,0.899,1.591,1.167,0.479,0.844,0.795,��쓌,3.6,��
2018/08/01,13:10,0.922,1.282,0.901,1.592,1.168,0.481,0.845,0.797,��쓌,4.8,��
2018/08/01,13:20,0.921,1.285,0.901,1.593,1.168,0.482,0.846,0.795,��쓌,4.5,��
2018/08/01,13:30,0.919,1.281,0.900,1.592,1.168,0.481,0.843,0.797,��쓌,4.3,��
2018/08/01,13:40,0.920,1.279,0.902,1.590,1.169,0.481,0.845,0.797,��쓌,3.9,��
2018/08/01,13:50,0.919,1.283,0.901,1.593,1.167,0.482,0.846,0.798,��쓌,3.9,��
2018/08/01,14:00,0.920,1.281,0.903,1.590,1.171,0.482,0.845,0.797,��쓌,4.3,��
2018/08/01,14:10,0.921,1.283,0.903,1.591,1.172,0.481,0.846,0.796,��쓌,4.8,��
2018/08/01,14:20,0.921,1.282,0.903,1.593,1.173,0.482,0.849,0.795,��쓌,4.5,��
2018/08/01,14:30,0.920,1.284,0.902,1.594,1.171,0.482,0.849,0.798,��쓌,5.5,��
2018/08/01,14:40,0.921,1.285,0.905,1.594,1.173,0.483,0.848,0.796,��쓌,6.4,��
2018/08/01,14:50,0.920,1.285,0.905,1.594,1.174,0.484,0.849,0.798,��쓌,5.5,��
2018/08/01,15:00,0.920,1.282,0.905,1.596,1.175,0.483,0.851,0.799,��,4.7,��
2018/08/01,15:10,0.922,1.284,0.905,1.594,1.173,0.482,0.848,0.799,��,5.0,��
2018/08/01,15:20,0.922,1.287,0.903,1.596,1.177,0.484,0.850,0.800,��,5.3,��
2018/08/01,15:30,0.921,1.285,0.905,1.599,1.178,0.480,0.850,0.798,��쓌,5.9,��
2018/08/01,15:40,0.922,1.289,0.902,1.599,1.175,0.481,0.850,0.797,��쓌,5.6,��
2018/08/01,15:50,0.924,1.287,0.903,1.601,1.174,0.481,0.848,0.798,��쓌,6.0,��
2018/08/01,16:00,0.922,1.288,0.905,1.599,1.174,0.483,0.849,0.795,��,4.8,��
2018/08/01,16:10,0.925,1.284,0.903,1.598,1.172,0.482,0.848,0.797,��쓌,5.4,��
2018/08/01,16:20,0.923,1.287,0.903,1.596,1.174,0.482,0.851,0.799,��,4.7,��
2018/08/01,16:30,0.923,1.286,0.902,1.601,1.171,0.480,0.847,0.798,��,5.8,��
2018/08/01,16:40,0.923,1.284,0.903,1.597,1.172,0.479,0.849,0.797,��,4.3,��
2018/08/01,16:50,0.926,1.287,0.902,1.600,1.173,0.479,0.848,0.797,��,4.4,��
2018/08/01,17:00,0.924,1.286,0.902,1.600,1.174,0.481,0.846,0.797,��,5.3,��
2018/08/01,17:10,0.923,1.288,0.905,1.602,1.171,0.479,0.848,0.796,��,5.8,��
2018/08/01,17:20,0.925,1.285,0.904,1.599,1.173,0.480,0.846,0.796,��,5.9,��
2018/08/01,17:30,0.924,1.285,0.903,1.598,1.170,0.480,0.848,0.799,��,6.5,��
2018/08/01,17:40,0.923,1.285,0.903,1.599,1.173,0.479,0.847,0.797,��,6.5,��
2018/08/01,17:50,0.921,1.285,0.903,1.597,1.168,0.480,0.847,0.799,��,6.0,��
2018/08/01,18:00,0.925,1.287,0.902,1.598,1.172,0.481,0.850,0.797,��,6.1,��
2018/08/01,18:10,0.924,1.288,0.903,1.600,1.172,0.479,0.848,0.798,��쓌,6.0,��
2018/08/01,18:20,0.920,1.287,0.902,1.599,1.175,0.478,0.849,0.796,��,5.8,��
2018/08/01,18:30,0.922,1.287,0.903,1.598,1.171,0.479,0.847,0.797,��,6.0,��
2018/08/01,18:40,0.922,1.287,0.903,1.600,1.175,0.479,0.847,0.798,��,7.0,��
2018/08/01,18:50,0.923,1.285,0.902,1.598,1.172,0.481,0.847,0.798,��,6.6,��
2018/08/01,19:00,0.924,1.286,0.904,1.598,1.175,0.483,0.846,0.797,��,5.8,��
2018/08/01,19:10,0.923,1.283,0.901,1.599,1.170,0.481,0.847,0.797,��,4.2,��
2018/08/01,19:20,0.922,1.284,0.903,1.599,1.172,0.479,0.846,0.795,��,3.8,��
2018/08/01,19:30,0.922,1.285,0.903,1.600,1.171,0.480,0.845,0.797,��,5.1,��
2018/08/01,19:40,0.921,1.287,0.903,1.600,1.171,0.482,0.844,0.795,��,4.9,��
2018/08/01,19:50,0.921,1.285,0.903,1.598,1.172,0.479,0.844,0.797,��,4.6,��
2018/08/01,20:00,0.923,1.284,0.903,1.600,1.170,0.481,0.846,0.798,��,4.3,��
2018/08/01,20:10,0.922,1.284,0.903,1.599,1.170,0.480,0.846,0.797,��쐼,3.6,��
2018/08/01,20:20,0.921,1.285,0.903,1.601,1.171,0.479,0.847,0.796,��쐼,3.2,��
2018/08/01,20:30,0.922,1.287,0.902,1.599,1.171,0.482,0.848,0.797,�쐼,2.6,��
2018/08/01,20:40,0.924,1.287,0.901,1.598,1.173,0.480,0.846,0.797,���쐼,2.5,��
2018/08/01,20:50,0.924,1.285,0.905,1.602,1.174,0.482,0.847,0.797,��,1.5,��
2018/08/01,21:00,0.923,1.285,0.906,1.603,1.173,0.482,0.846,0.798,�k��,2.6,��
2018/08/01,21:10,0.923,1.285,0.904,1.598,1.168,0.481,0.847,0.797,�k��,2.6,��
2018/08/01,21:20,0.923,1.286,0.904,1.596,1.172,0.481,0.846,0.798,���k��,3.3,��
2018/08/01,21:30,0.923,1.288,0.903,1.601,1.172,0.482,0.846,0.798,���k��,3.1,��
2018/08/01,21:40,0.922,1.283,0.905,1.598,1.174,0.481,0.847,0.796,���k��,3.5,��
2018/08/01,21:50,0.921,1.287,0.905,1.601,1.171,0.483,0.845,0.798,���k��,3.9,��
2018/08/01,22:00,0.921,1.287,0.903,1.598,1.171,0.482,0.847,0.796,�k��,4.1,��
2018/08/01,22:10,0.921,1.286,0.903,1.602,1.172,0.481,0.846,0.798,�k��,3.5,��
2018/08/01,22:20,0.924,1.287,0.903,1.600,1.173,0.482,0.845,0.798,�k��,3.2,��
2018/08/01,22:30,0.924,1.285,0.904,1.599,1.171,0.481,0.845,0.798,���k��,3.6,��
2018/08/01,22:40,0.924,1.287,0.904,1.600,1.173,0.483,0.846,0.799,���k��,3.7,��
2018/08/01,22:50,0.922,1.286,0.903,1.601,1.172,0.482,0.846,0.798,�k��,4.4,��
2018/08/01,23:00,0.922,1.284,0.905,1.599,1.174,0.482,0.846,0.797,�k��,3.4,��
2018/08/01,23:10,0.922,1.284,0.903,1.600,1.173,0.481,0.845,0.797,�k��,4.6,��
2018/08/01,23:20,0.920,1.286,0.903,1.600,1.170,0.482,0.849,0.795,�k��,4.5,��
2018/08/01,23:30,0.922,1.285,0.904,1.600,1.172,0.481,0.847,0.797,���k��,4.8,��
2018/08/01,23:40,0.923,1.287,0.903,1.599,1.171,0.479,0.847,0.798,���k��,4.5,��
2018/08/01,23:50,0.922,1.285,0.905,1.601,1.172,0.481,0.846,0.796,���k��,4.9,��
